Time,TemperatureF,DewpointF,PressureIn,WindDirection,WindDirectionDegrees,WindSpeedMPH,WindSpeedGustMPH,Humidity,HourlyPrecipIn,Conditions,Clouds,dailyrainin,SoftwareType,DateUTC
2013-06-19 00:11:00,52.7,36.1,29.79,ENE,67,6.8,-999.0,53,-99.99,,,0.00,Acu-Link.com,2013-06-19 06:11:00,
2013-06-19 00:26:00,51.6,36.0,29.79,NE,45,6.8,-999.0,55,-99.99,,,0.00,Acu-Link.com,2013-06-19 06:26:00,
2013-06-19 00:41:00,50.9,34.9,29.79,NNE,22,4.7,-999.0,54,-99.99,,,0.00,Acu-Link.com,2013-06-19 06:41:00,
2013-06-19 00:56:00,50.2,35.1,29.79,NNE,22,6.3,-999.0,56,-99.99,,,0.00,Acu-Link.com,2013-06-19 06:56:00,
2013-06-19 01:11:00,49.6,35.0,29.78,NE,45,5.8,-999.0,57,-99.99,,,0.00,Acu-Link.com,2013-06-19 07:11:00,
2013-06-19 01:27:00,49.3,34.3,29.79,NNE,22,5.8,-999.0,56,-99.99,,,0.00,Acu-Link.com,2013-06-19 07:27:00,
2013-06-19 01:42:00,49.6,34.6,29.79,NNE,22,5.8,-999.0,56,-99.99,,,0.00,Acu-Link.com,2013-06-19 07:42:00,
2013-06-19 01:57:00,48.6,33.6,29.79,NNE,22,4.7,-999.0,56,-99.99,,,0.00,Acu-Link.com,2013-06-19 07:57:00,
2013-06-19 02:12:00,48.2,33.2,29.79,NNE,22,3.2,-999.0,56,-99.99,,,0.00,Acu-Link.com,2013-06-19 08:12:00,
2013-06-19 02:28:00,46.0,33.3,29.79,NNE,22,2.2,-999.0,61,-99.99,,,0.00,Acu-Link.com,2013-06-19 08:28:00,
2013-06-19 02:43:00,42.6,31.7,29.80,NW,315,3.2,-999.0,65,-99.99,,,0.00,Acu-Link.com,2013-06-19 08:43:00,
2013-06-19 02:58:00,44.1,33.5,29.80,NNW,337,2.7,-999.0,66,-99.99,,,0.00,Acu-Link.com,2013-06-19 08:58:00,
2013-06-19 03:13:00,43.3,32.3,29.79,NNW,337,1.7,-999.0,65,-99.99,,,0.00,Acu-Link.com,2013-06-19 09:13:00,
2013-06-19 03:28:00,41.2,32.5,29.79,SW,225,0.0,-999.0,71,-99.99,,,0.00,Acu-Link.com,2013-06-19 09:28:00,
2013-06-19 03:43:00,39.6,31.7,29.80,WNW,292,0.0,-999.0,73,-99.99,,,0.00,Acu-Link.com,2013-06-19 09:43:00,
2013-06-19 03:59:00,38.5,31.3,29.80,NNW,337,2.7,-999.0,75,-99.99,,,0.00,Acu-Link.com,2013-06-19 09:59:00,
2013-06-19 04:14:00,37.0,29.5,29.80,NW,315,0.0,-999.0,74,-99.99,,,0.00,Acu-Link.com,2013-06-19 10:14:00,
2013-06-19 04:29:00,35.8,30.9,29.81,ESE,112,0.0,-999.0,82,-99.99,,,0.00,Acu-Link.com,2013-06-19 10:29:00,
2013-06-19 04:44:00,34.7,32.1,29.81,ENE,67,0.0,-999.0,90,-99.99,,,0.00,Acu-Link.com,2013-06-19 10:44:00,
2013-06-19 05:00:00,34.5,33.0,29.82,North,0,0.0,-999.0,94,-99.99,,,0.00,Acu-Link.com,2013-06-19 11:00:00,
2013-06-19 05:15:00,34.2,31.3,29.82,SW,225,0.0,-999.0,89,-99.99,,,0.00,Acu-Link.com,2013-06-19 11:15:00,
2013-06-19 05:30:00,32.9,30.6,29.83,SSE,157,0.0,-999.0,91,-99.99,,,0.00,Acu-Link.com,2013-06-19 11:30:00,
2013-06-19 05:46:00,32.7,30.4,29.84,NNE,22,0.0,-999.0,91,-99.99,,,0.00,Acu-Link.com,2013-06-19 11:46:00,
2013-06-19 06:01:00,32.9,29.5,29.84,SW,225,0.0,-999.0,87,-99.99,,,0.00,Acu-Link.com,2013-06-19 12:01:00,
2013-06-19 06:16:00,35.6,33.0,29.84,North,0,0.0,-999.0,90,-99.99,,,0.00,Acu-Link.com,2013-06-19 12:16:00,
2013-06-19 06:32:00,40.1,32.8,29.83,ENE,67,1.1,-999.0,75,-99.99,,,0.00,Acu-Link.com,2013-06-19 12:32:00,
2013-06-19 06:47:00,44.8,34.5,29.84,ESE,112,0.0,-999.0,67,-99.99,,,0.00,Acu-Link.com,2013-06-19 12:47:00,
2013-06-19 07:02:00,48.4,34.7,29.83,NE,45,2.2,-999.0,59,-99.99,,,0.00,Acu-Link.com,2013-06-19 13:02:00,
2013-06-19 07:17:00,52.3,35.7,29.84,East,90,0.0,-999.0,53,-99.99,,,0.00,Acu-Link.com,2013-06-19 13:17:00,
2013-06-19 07:32:00,55.0,36.7,29.83,ESE,112,2.7,-999.0,50,-99.99,,,0.00,Acu-Link.com,2013-06-19 13:32:00,
2013-06-19 07:48:00,58.1,38.5,29.83,ESE,112,2.2,-999.0,48,-99.99,,,0.00,Acu-Link.com,2013-06-19 13:48:00,
2013-06-19 08:04:00,61.9,39.7,29.83,WSW,247,0.0,-999.0,44,-99.99,,,0.00,Acu-Link.com,2013-06-19 14:04:00,
2013-06-19 08:19:00,64.4,36.9,29.82,NNE,22,2.7,-999.0,36,-99.99,,,0.00,Acu-Link.com,2013-06-19 14:19:00,
2013-06-19 08:34:00,63.9,37.8,29.81,WNW,292,3.2,-999.0,38,-99.99,,,0.00,Acu-Link.com,2013-06-19 14:34:00,
2013-06-19 08:49:00,60.3,37.7,29.81,West,270,2.2,-999.0,43,-99.99,,,0.00,Acu-Link.com,2013-06-19 14:49:00,
2013-06-19 09:05:00,61.3,35.5,29.80,ESE,112,2.2,-999.0,38,-99.99,,,0.00,Acu-Link.com,2013-06-19 15:05:00,
2013-06-19 09:21:00,60.8,41.0,29.79,West,270,3.7,-999.0,48,-99.99,,,0.00,Acu-Link.com,2013-06-19 15:21:00,
2013-06-19 09:36:00,62.8,40.0,29.80,WSW,247,2.2,-999.0,43,-99.99,,,0.00,Acu-Link.com,2013-06-19 15:36:00,
2013-06-19 09:51:00,64.8,39.9,29.78,NW,315,4.2,-999.0,40,-99.99,,,0.00,Acu-Link.com,2013-06-19 15:51:00,
2013-06-19 10:07:00,68.5,39.8,29.77,WSW,247,3.7,-999.0,35,-99.99,,,0.00,Acu-Link.com,2013-06-19 16:07:00,
2013-06-19 10:22:00,69.4,39.0,29.76,South,180,4.7,-999.0,33,-99.99,,,0.00,Acu-Link.com,2013-06-19 16:22:00,
2013-06-19 10:37:00,70.3,37.4,29.76,SW,225,1.7,-999.0,30,-99.99,,,0.00,Acu-Link.com,2013-06-19 16:37:00,
2013-06-19 10:52:00,72.5,38.4,29.75,WSW,247,3.2,-999.0,29,-99.99,,,0.00,Acu-Link.com,2013-06-19 16:52:00,
2013-06-19 11:07:00,74.3,40.8,29.74,SSE,157,5.8,-999.0,30,-99.99,,,0.00,Acu-Link.com,2013-06-19 17:07:00,
2013-06-19 11:22:00,76.6,38.1,29.74,SE,135,4.2,-999.0,25,-99.99,,,0.00,Acu-Link.com,2013-06-19 17:22:00,
2013-06-19 11:38:00,78.8,21.9,29.74,NE,45,2.7,-999.0,12,-99.99,,,0.00,Acu-Link.com,2013-06-19 17:38:00,
2013-06-19 11:53:00,81.0,-7.0,29.72,SE,135,3.7,-999.0,3,-99.99,,,0.00,Acu-Link.com,2013-06-19 17:53:00,
2013-06-19 12:08:00,80.8,3.6,29.73,ESE,112,4.2,-999.0,5,-99.99,,,0.00,Acu-Link.com,2013-06-19 18:08:00,
2013-06-19 12:23:00,80.1,-28.8,29.71,South,180,7.8,-999.0,1,-99.99,,,0.00,Acu-Link.com,2013-06-19 18:23:00,
2013-06-19 12:38:00,82.2,8.6,29.70,South,180,6.8,-999.0,6,-99.99,,,0.00,Acu-Link.com,2013-06-19 18:38:00,
2013-06-19 12:54:00,82.6,-27.3,29.69,SSW,202,8.3,-999.0,1,-99.99,,,0.00,Acu-Link.com,2013-06-19 18:54:00,
2013-06-19 13:09:00,82.9,-27.1,29.68,SW,225,3.7,-999.0,1,-99.99,,,0.00,Acu-Link.com,2013-06-19 19:09:00,
2013-06-19 13:24:00,84.9,-25.9,29.68,South,180,5.8,-999.0,1,-99.99,,,0.00,Acu-Link.com,2013-06-19 19:24:00,
2013-06-19 13:39:00,84.6,-26.1,29.67,SSE,157,5.8,-999.0,1,-99.99,,,0.00,Acu-Link.com,2013-06-19 19:39:00,
2013-06-19 13:54:00,84.6,-26.1,29.66,SSW,202,6.8,-999.0,1,-99.99,,,0.00,Acu-Link.com,2013-06-19 19:54:00,
2013-06-19 14:09:00,85.6,-25.5,29.65,SSW,202,6.3,-999.0,1,-99.99,,,0.00,Acu-Link.com,2013-06-19 20:09:00,
2013-06-19 14:25:00,87.3,-24.5,29.65,South,180,6.3,-999.0,1,-99.99,,,0.00,Acu-Link.com,2013-06-19 20:25:00,
2013-06-19 14:40:00,85.8,-25.4,29.64,WSW,247,7.8,-999.0,1,-99.99,,,0.00,Acu-Link.com,2013-06-19 20:40:00,
2013-06-19 14:55:00,86.0,-25.3,29.65,SW,225,6.8,-999.0,1,-99.99,,,0.00,Acu-Link.com,2013-06-19 20:55:00,
2013-06-19 15:11:00,86.0,-25.3,29.63,SSW,202,6.3,-999.0,1,-99.99,,,0.00,Acu-Link.com,2013-06-19 21:11:00,
2013-06-19 15:26:00,85.1,-25.8,29.63,South,180,6.8,-999.0,1,-99.99,,,0.00,Acu-Link.com,2013-06-19 21:26:00,
2013-06-19 15:41:00,85.8,-25.4,29.63,South,180,6.3,-999.0,1,-99.99,,,0.00,Acu-Link.com,2013-06-19 21:41:00,
2013-06-19 15:57:00,85.3,-25.7,29.62,South,180,8.3,-999.0,1,-99.99,,,0.00,Acu-Link.com,2013-06-19 21:57:00,
2013-06-19 16:12:00,84.9,-25.9,29.63,SSE,157,6.8,-999.0,1,-99.99,,,0.00,Acu-Link.com,2013-06-19 22:12:00,
2013-06-19 16:27:00,84.0,-26.5,29.62,West,270,9.9,-999.0,1,-99.99,,,0.00,Acu-Link.com,2013-06-19 22:27:00,
2013-06-19 16:42:00,84.2,-26.3,29.63,ENE,67,6.3,-999.0,1,-99.99,,,0.00,Acu-Link.com,2013-06-19 22:42:00,
2013-06-19 16:57:00,83.5,-26.8,29.62,South,180,4.2,-999.0,1,-99.99,,,0.00,Acu-Link.com,2013-06-19 22:57:00,
2013-06-19 17:12:00,82.9,-27.1,29.63,East,90,6.3,-999.0,1,-99.99,,,0.00,Acu-Link.com,2013-06-19 23:12:00,
2013-06-19 17:28:00,82.2,-27.5,29.63,East,90,7.8,-999.0,1,-99.99,,,0.00,Acu-Link.com,2013-06-19 23:28:00,
2013-06-19 17:43:00,81.1,-28.2,29.63,West,270,4.2,-999.0,1,-99.99,,,0.00,Acu-Link.com,2013-06-19 23:43:00,
2013-06-19 17:58:00,81.7,-27.8,29.62,SE,135,5.3,-999.0,1,-99.99,,,0.00,Acu-Link.com,2013-06-19 23:58:00,
2013-06-19 18:13:00,79.7,-29.0,29.62,SW,225,3.7,-999.0,1,-99.99,,,0.00,Acu-Link.com,2013-06-20 00:13:00,
2013-06-19 18:29:00,78.3,-29.9,29.62,NE,45,5.3,-999.0,1,-99.99,,,0.00,Acu-Link.com,2013-06-20 00:29:00,
2013-06-19 18:44:00,77.2,-30.5,29.63,South,180,5.8,-999.0,1,-99.99,,,0.00,Acu-Link.com,2013-06-20 00:44:00,
2013-06-19 18:59:00,76.3,-31.0,29.63,South,180,3.7,-999.0,1,-99.99,,,0.00,Acu-Link.com,2013-06-20 00:59:00,
2013-06-19 19:14:00,75.2,-31.7,29.64,SW,225,3.2,-999.0,1,-99.99,,,0.00,Acu-Link.com,2013-06-20 01:14:00,
2013-06-19 19:29:00,74.3,-32.2,29.63,ESE,112,6.3,-999.0,1,-99.99,,,0.00,Acu-Link.com,2013-06-20 01:29:00,
2013-06-19 19:45:00,73.4,-32.8,29.64,SSE,157,7.8,-999.0,1,-99.99,,,0.00,Acu-Link.com,2013-06-20 01:45:00,
2013-06-19 20:00:00,72.7,-33.2,29.64,SW,225,2.7,-999.0,1,-99.99,,,0.00,Acu-Link.com,2013-06-20 02:00:00,
2013-06-19 20:15:00,68.9,-1.0,29.65,SSW,202,1.1,-999.0,6,-99.99,,,0.00,Acu-Link.com,2013-06-20 02:15:00,
2013-06-19 20:30:00,64.4,21.3,29.65,SSE,157,0.0,-999.0,19,-99.99,,,0.00,Acu-Link.com,2013-06-20 02:30:00,
2013-06-19 20:45:00,61.2,27.8,29.65,NNW,337,0.0,-999.0,28,-99.99,,,0.00,Acu-Link.com,2013-06-20 02:45:00,
2013-06-19 21:01:00,59.0,32.1,29.66,NNE,22,2.7,-999.0,36,-99.99,,,0.00,Acu-Link.com,2013-06-20 03:01:00,
2013-06-19 21:16:00,57.0,28.2,29.67,NE,45,1.7,-999.0,33,-99.99,,,0.00,Acu-Link.com,2013-06-20 03:16:00,
2013-06-19 21:31:00,55.4,28.9,29.67,NE,45,3.7,-999.0,36,-99.99,,,0.00,Acu-Link.com,2013-06-20 03:31:00,
2013-06-19 21:46:00,54.0,28.3,29.69,NE,45,3.7,-999.0,37,-99.99,,,0.00,Acu-Link.com,2013-06-20 03:46:00,
2013-06-19 22:01:00,54.9,24.1,29.71,NE,45,3.7,-999.0,30,-99.99,,,0.00,Acu-Link.com,2013-06-20 04:01:00,
2013-06-19 22:16:00,53.6,23.7,29.72,NNE,22,5.8,-999.0,31,-99.99,,,0.00,Acu-Link.com,2013-06-20 04:16:00,
2013-06-19 22:32:00,54.9,21.6,29.72,NNE,22,3.7,-999.0,27,-99.99,,,0.00,Acu-Link.com,2013-06-20 04:32:00,
2013-06-19 22:47:00,53.4,20.3,29.72,East,90,3.7,-999.0,27,-99.99,,,0.00,Acu-Link.com,2013-06-20 04:47:00,
2013-06-19 23:02:00,50.4,30.4,29.71,NNE,22,2.2,-999.0,46,-99.99,,,0.00,Acu-Link.com,2013-06-20 05:02:00,
2013-06-19 23:17:00,49.6,23.8,29.71,NE,45,3.2,-999.0,36,-99.99,,,0.00,Acu-Link.com,2013-06-20 05:17:00,
2013-06-19 23:33:00,47.7,25.7,29.72,NNE,22,2.7,-999.0,42,-99.99,,,0.00,Acu-Link.com,2013-06-20 05:33:00,
2013-06-19 23:48:00,48.6,24.8,29.72,NW,315,3.2,-999.0,39,-99.99,,,0.00,Acu-Link.com,2013-06-20 05:48:00,